QPF
0.00 0.00 0.00 0.00 0.00 0.00 0.00 0.00 0.00 0.00 0.00 0.00 0.00 0.00 0.00 0.00 0.00 0.00 0.00 0.00 0.00 0.00 0.00 0.01 0.01 0.01 0.01 0.02 0.02 0.02 0.01 0.01 0.02 0.02 0.02 0.01 0.01 0.01 0.01 0.01 0.01 0.01 0.01 0.01
0.00 0.00 0.00 0.00 0.00 0.00 0.00 0.00 0.00 0.00 0.00 0.00 0.00 0.00 0.00 0.00 0.00 0.00 0.00 0.00 0.00 0.00 0.00 0.00 0.01 0.02 0.02 0.02 0.02 0.01 0.01 0.01 0.01 0.02 0.02 0.02 0.01 0.01 0.01 0.01 0.01 0.01 0.01 0.01
0.00 0.00 0.00 0.00 0.00 0.00 0.00 0.00 0.00 0.00 0.00 0.00 0.00 0.00 0.00 0.00 0.00 0.00 0.00 0.00 0.00 0.00 0.00 0.00 0.01 0.01 0.01 0.01 0.01 0.01 0.01 0.01 0.01 0.01 0.01 0.01 0.01 0.01 0.02 0.01 0.01 0.02 0.02 0.02
0.00 0.00 0.00 0.00 0.00 0.00 0.00 0.00 0.00 0.00 0.00 0.00 0.00 0.00 0.00 0.00 0.00 0.00 0.00 0.00 0.00 0.01 0.00 0.00 0.01 0.01 0.01 0.01 0.01 0.01 0.01 0.01 0.01 0.01 0.01 0.02 0.02 0.02 0.01 0.01 0.01 0.02 0.03 0.03
0.00 0.00 0.00 0.00 0.00 0.00 0.01 0.00 0.00 0.00 0.00 0.00 0.00 0.00 0.00 0.00 0.00 0.00 0.00 0.00 0.00 0.01 0.01 0.01 0.01 0.01 0.01 0.01 0.01 0.01 0.01 0.01 0.01 0.01 0.02 0.02 0.03 0.03 0.02 0.02 0.02 0.02 0.02 0.02
0.00 0.00 0.00 0.00 0.01 0.01 0.00 0.00 0.01 0.01 0.01 0.00 0.00 0.00 0.00 0.00 0.00 0.01 0.01 0.01 0.01 0.01 0.01 0.01 0.02 0.02 0.02 0.02 0.02 0.02 0.02 0.01 0.01 0.01 0.02 0.03 0.05 0.05 0.06 0.05 0.04 0.03 0.02 0.02
0.00 0.00 0.00 0.01 0.01 0.01 0.01 0.01 0.01 0.01 0.01 0.01 0.00 0.00 0.00 0.00 0.00 0.01 0.01 0.01 0.01 0.01 0.01 0.01 0.03 0.03 0.03 0.03 0.03 0.02 0.02 0.01 0.01 0.01 0.01 0.03 0.04 0.04 0.05 0.04 0.04 0.03 0.03 0.04
0.01 0.01 0.01 0.01 0.01 0.01 0.01 0.00 0.00 0.02 0.02 0.01 0.01 0.01 0.01 0.01 0.01 0.01 0.01 0.01 0.01 0.01 0.01 0.01 0.02 0.03 0.03 0.03 0.03 0.02 0.01 0.01 0.01 0.01 0.02 0.02 0.02 0.02 0.02 0.02 0.02 0.03 0.02 0.02
0.01 0.01 0.01 0.01 0.01 0.01 0.01 0.01 0.02 0.04 0.06 0.05 0.03 0.02 0.02 0.02 0.01 0.01 0.01 0.01 0.01 0.02 0.01 0.01 0.02 0.01 0.01 0.01 0.01 0.01 0.02 0.02 0.02 0.02 0.02 0.02 0.02 0.02 0.01 0.01 0.01 0.02 0.02 0.02
0.01 0.00 0.01 0.01 0.02 0.02 0.02 0.02 0.03 0.05 0.06 0.08 0.07 0.04 0.03 0.02 0.01 0.01 0.01 0.01 0.01 0.02 0.02 0.02 0.01 0.01 0.00 0.01 0.01 0.01 0.01 0.02 0.02 0.02 0.02 0.02 0.01 0.01 0.01 0.01 0.01 0.01 0.02 0.02
0.01 0.01 0.01 0.01 0.02 0.03 0.06 0.06 0.06 0.05 0.06 0.11 0.09 0.04 0.02 0.02 0.01 0.01 0.01 0.02 0.02 0.02 0.03 0.02 0.02 0.01 0.01 0.01 0.01 0.01 0.01 0.02 0.02 0.03 0.03 0.02 0.02 0.02 0.02 0.01 0.01 0.01 0.01 0.02
0.01 0.01 0.02 0.02 0.02 0.05 0.09 0.07 0.06 0.06 0.08 0.10 0.06 0.05 0.03 0.03 0.03 0.02 0.02 0.02 0.02 0.02 0.02 0.02 0.02 0.01 0.01 0.01 0.01 0.01 0.01 0.02 0.02 0.02 0.02 0.02 0.02 0.02 0.02 0.02 0.01 0.01 0.01 0.01
0.00 0.01 0.01 0.01 0.02 0.05 0.07 0.07 0.06 0.06 0.08 0.06 0.05 0.05 0.04 0.03 0.03 0.03 0.02 0.02 0.02 0.02 0.02 0.02 0.01 0.01 0.01 0.01 0.01 0.01 0.01 0.02 0.02 0.02 0.02 0.02 0.02 0.02 0.02 0.02 0.01 0.01 0.00 0.00
0.00 0.01 0.01 0.01 0.03 0.06 0.06 0.06 0.06 0.06 0.07 0.07 0.05 0.05 0.04 0.03 0.02 0.03 0.02 0.01 0.01 0.01 0.01 0.01 0.01 0.00 0.00 0.00 0.01 0.01 0.01 0.02 0.02 0.03 0.04 0.03 0.03 0.03 0.03 0.02 0.02 0.02 0.01 0.01
0.02 0.03 0.02 0.02 0.03 0.04 0.05 0.05 0.05 0.04 0.04 0.06 0.04 0.03 0.03 0.03 0.02 0.02 0.02 0.01 0.00 0.01 0.00 0.00 0.00 0.00 0.00 0.01 0.01 0.01 0.01 0.02 0.02 0.02 0.03 0.03 0.03 0.03 0.03 0.03 0.03 0.02 0.02 0.03
0.04 0.02 0.02 0.04 0.05 0.03 0.05 0.08 0.08 0.05 0.04 0.03 0.02 0.02 0.03 0.03 0.02 0.02 0.02 0.01 0.01 0.01 0.01 0.01 0.01 0.01 0.01 0.01 0.01 0.02 0.02 0.01 0.01 0.01 0.02 0.02 0.03 0.03 0.02 0.03 0.03 0.03 0.03 0.03
0.02 0.02 0.04 0.07 0.06 0.05 0.07 0.07 0.08 0.07 0.04 0.03 0.02 0.02 0.02 0.02 0.02 0.02 0.02 0.01 0.02 0.01 0.01 0.01 0.01 0.01 0.01 0.01 0.01 0.02 0.02 0.02 0.02 0.02 0.01 0.02 0.02 0.03 0.03 0.03 0.03 0.03 0.03 0.03
0.01 0.03 0.05 0.07 0.05 0.06 0.05 0.05 0.05 0.04 0.04 0.03 0.02 0.02 0.01 0.01 0.01 0.02 0.02 0.01 0.02 0.01 0.01 0.01 0.01 0.01 0.01 0.01 0.01 0.02 0.02 0.02 0.01 0.01 0.01 0.02 0.02 0.02 0.02 0.02 0.02 0.02 0.02 0.02
0.00 0.02 0.05 0.06 0.05 0.03 0.02 0.03 0.02 0.02 0.02 0.01 0.01 0.01 0.01 0.01 0.02 0.06 0.06 0.03 0.02 0.02 0.02 0.02 0.02 0.01 0.01 0.01 0.01 0.02 0.02 0.02 0.02 0.02 0.02 0.02 0.03 0.03 0.03 0.02 0.02 0.02 0.02 0.02
0.00 0.01 0.04 0.04 0.03 0.02 0.02 0.02 0.01 0.01 0.01 0.01 0.01 0.01 0.01 0.01 0.02 0.06 0.07 0.06 0.03 0.02 0.02 0.02 0.02 0.01 0.01 0.01 0.02 0.02 0.02 0.02 0.02 0.02 0.02 0.03 0.03 0.03 0.02 0.02 0.02 0.02 0.02 0.02
0.01 0.01 0.02 0.01 0.01 0.02 0.02 0.01 0.01 0.01 0.01 0.01 0.01 0.01 0.01 0.01 0.03 0.07 0.08 0.07 0.06 0.04 0.03 0.02 0.02 0.02 0.02 0.02 0.03 0.03 0.03 0.03 0.03 0.03 0.03 0.03 0.03 0.03 0.03 0.02 0.02 0.03 0.03 0.03
0.02 0.02 0.02 0.02 0.02 0.01 0.01 0.01 0.01 0.01 0.02 0.01 0.01 0.01 0.01 0.02 0.04 0.07 0.08 0.07 0.08 0.08 0.05 0.03 0.04 0.04 0.04 0.04 0.04 0.04 0.04 0.04 0.04 0.04 0.04 0.05 0.05 0.05 0.04 0.04 0.03 0.03 0.04 0.03
0.05 0.03 0.03 0.03 0.02 0.01 0.00 0.01 0.01 0.01 0.02 0.02 0.02 0.01 0.01 0.03 0.04 0.05 0.05 0.05 0.07 0.07 0.06 0.07 0.09 0.08 0.07 0.06 0.05 0.05 0.04 0.05 0.05 0.06 0.07 0.07 0.06 0.05 0.04 0.04 0.04 0.04 0.04 0.04
0.04 0.03 0.03 0.02 0.01 0.01 0.01 0.01 0.01 0.01 0.01 0.01 0.01 0.02 0.03 0.03 0.03 0.03 0.04 0.04 0.04 0.04 0.05 0.08 0.08 0.07 0.05 0.04 0.05 0.06 0.07 0.07 0.08 0.09 0.08 0.08 0.07 0.05 0.04 0.04 0.03 0.03 0.03 0.03
0.04 0.04 0.04 0.03 0.02 0.01 0.01 0.01 0.01 0.01 0.01 0.01 0.02 0.03 0.04 0.03 0.02 0.02 0.02 0.02 0.03 0.03 0.04 0.05 0.04 0.03 0.02 0.02 0.04 0.05 0.05 0.05 0.06 0.07 0.07 0.07 0.06 0.04 0.03 0.02 0.02 0.02 0.02 0.02
0.04 0.03 0.03 0.02 0.01 0.01 0.01 0.01 0.01 0.01 0.01 0.01 0.02 0.03 0.02 0.02 0.02 0.03 0.03 0.03 0.02 0.02 0.02 0.03 0.03 0.03 0.03 0.03 0.04 0.03 0.03 0.03 0.03 0.03 0.03 0.03 0.03 0.02 0.02 0.02 0.03 0.03 0.02 0.02
0.03 0.02 0.02 0.02 0.01 0.01 0.01 0.00 0.00 0.00 0.01 0.01 0.02 0.02 0.02 0.02 0.03 0.04 0.03 0.03 0.02 0.02 0.02 0.02 0.03 0.03 0.03 0.03 0.03 0.03 0.02 0.02 0.02 0.03 0.03 0.03 0.04 0.05 0.04 0.03 0.03 0.02 0.02 0.02
MSLP
1005.36 1004.96 1004.62 1004.42 1004.41 1004.64 1005.10 1005.77 1006.60 1007.53 1008.47 1009.36 1010.14 1010.76 1011.20 1011.48 1011.60 1011.59 1011.50 1011.35 1011.20 1011.06 1010.97 1010.96 1011.02 1011.17 1011.41 1011.73 1012.09 1012.48 1012.86 1013.20 1013.47 1013.66 1013.75 1013.74 1013.65 1013.50 1013.32 1013.12 1012.92 1012.75 1012.61 1012.49
1005.69 1005.35 1005.04 1004.83 1004.80 1004.99 1005.41 1006.05 1006.88 1007.83 1008.82 1009.80 1010.67 1011.40 1011.96 1012.32 1012.50 1012.53 1012.45 1012.30 1012.12 1011.97 1011.86 1011.83 1011.90 1012.05 1012.30 1012.61 1012.97 1013.33 1013.68 1013.97 1014.19 1014.31 1014.34 1014.28 1014.13 1013.94 1013.71 1013.47 1013.24 1013.02 1012.84 1012.67
1006.05 1005.78 1005.53 1005.35 1005.31 1005.47 1005.84 1006.44 1007.22 1008.15 1009.14 1010.14 1011.06 1011.85 1012.46 1012.89 1013.13 1013.20 1013.15 1013.02 1012.85 1012.71 1012.61 1012.60 1012.68 1012.85 1013.11 1013.42 1013.76 1014.10 1014.41 1014.65 1014.81 1014.87 1014.84 1014.72 1014.54 1014.30 1014.05 1013.79 1013.53 1013.30 1013.09 1012.90
1006.43 1006.24 1006.05 1005.91 1005.88 1006.01 1006.34 1006.87 1007.59 1008.46 1009.41 1010.37 1011.29 1012.09 1012.74 1013.21 1013.49 1013.62 1013.61 1013.52 1013.40 1013.29 1013.22 1013.24 1013.34 1013.52 1013.78 1014.09 1014.41 1014.71 1014.96 1015.15 1015.24 1015.25 1015.16 1015.00 1014.78 1014.53 1014.26 1014.00 1013.75 1013.52 1013.32 1013.13
1006.81 1006.71 1006.58 1006.49 1006.47 1006.59 1006.87 1007.33 1007.96 1008.74 1009.61 1010.52 1011.40 1012.19 1012.85 1013.35 1013.68 1013.86 1013.92 1013.89 1013.82 1013.75 1013.73 1013.77 1013.89 1014.07 1014.32 1014.60 1014.88 1015.12 1015.32 1015.43 1015.46 1015.41 1015.27 1015.07 1014.83 1014.58 1014.32 1014.08 1013.86 1013.66 1013.49 1013.32
1007.19 1007.17 1007.11 1007.06 1007.06 1007.16 1007.39 1007.78 1008.33 1009.01 1009.80 1010.63 1011.45 1012.22 1012.88 1013.40 1013.78 1014.02 1014.15 1014.18 1014.18 1014.17 1014.18 1014.25 1014.37 1014.54 1014.76 1014.99 1015.21 1015.39 1015.51 1015.55 1015.51 1015.40 1015.21 1014.99 1014.74 1014.49 1014.25 1014.04 1013.87 1013.72 1013.60 1013.48
1007.56 1007.59 1007.60 1007.59 1007.62 1007.72 1007.92 1008.25 1008.72 1009.31 1010.00 1010.75 1011.52 1012.25 1012.90 1013.45 1013.87 1014.17 1014.37 1014.48 1014.53 1014.58 1014.63 1014.71 1014.82 1014.97 1015.14 1015.32 1015.46 1015.57 1015.61 1015.57 1015.46 1015.29 1015.07 1014.81 1014.56 1014.32 1014.11 1013.94 1013.82 1013.73 1013.67 1013.61
1007.87 1007.97 1008.04 1008.09 1008.16 1008.27 1008.45 1008.74 1009.14 1009.66 1010.27 1010.94 1011.65 1012.34 1012.98 1013.54 1014.00 1014.36 1014.61 1014.79 1014.91 1015.00 1015.08 1015.17 1015.27 1015.39 1015.51 1015.62 1015.70 1015.72 1015.68 1015.57 1015.40 1015.17 1014.90 1014.63 1014.36 1014.13 1013.95 1013.83 1013.75 1013.72 1013.72 1013.72
1008.11 1008.29 1008.43 1008.55 1008.67 1008.81 1009.00 1009.27 1009.63 1010.08 1010.62 1011.23 1011.88 1012.53 1013.15 1013.71 1014.19 1014.59 1014.89 1015.12 1015.29 1015.42 1015.52 1015.62 1015.71 1015.80 1015.88 1015.93 1015.94 1015.90 1015.79 1015.61 1015.38 1015.10 1014.80 1014.49 1014.22 1013.99 1013.82 1013.73 1013.69 1013.71 1013.76 1013.80
1008.27 1008.53 1008.75 1008.95 1009.14 1009.34 1009.56 1009.83 1010.17 1010.59 1011.07 1011.62 1012.21 1012.81 1013.40 1013.94 1014.43 1014.84 1015.18 1015.44 1015.65 1015.81 1015.93 1016.04 1016.12 1016.19 1016.23 1016.24 1016.20 1016.10 1015.94 1015.71 1015.43 1015.11 1014.77 1014.44 1014.14 1013.91 1013.75 1013.66 1013.65 1013.69 1013.77 1013.86
1008.35 1008.69 1009.01 1009.31 1009.58 1009.85 1010.12 1010.42 1010.76 1011.15 1011.59 1012.08 1012.61 1013.16 1013.70 1014.21 1014.68 1015.10 1015.44 1015.73 1015.95 1016.13 1016.27 1016.38 1016.47 1016.52 1016.55 1016.53 1016.45 1016.32 1016.12 1015.85 1015.53 1015.17 1014.81 1014.45 1014.13 1013.88 1013.70 1013.62 1013.61 1013.66 1013.76 1013.86
1008.37 1008.79 1009.21 1009.60 1009.98 1010.32 1010.66 1011.00 1011.35 1011.73 1012.14 1012.58 1013.05 1013.54 1014.02 1014.49 1014.93 1015.32 1015.66 1015.94 1016.18 1016.37 1016.52 1016.64 1016.73 1016.78 1016.80 1016.76 1016.67 1016.51 1016.29 1016.00 1015.65 1015.27 1014.87 1014.49 1014.15 1013.87 1013.68 1013.57 1013.55 1013.60 1013.70 1013.80
1008.34 1008.85 1009.35 1009.85 1010.31 1010.74 1011.14 1011.52 1011.90 1012.27 1012.66 1013.06 1013.48 1013.90 1014.33 1014.75 1015.14 1015.50 1015.82 1016.10 1016.34 1016.53 1016.69 1016.82 1016.91 1016.96 1016.97 1016.93 1016.83 1016.65 1016.41 1016.11 1015.74 1015.34 1014.92 1014.52 1014.16 1013.86 1013.64 1013.51 1013.48 1013.51 1013.59 1013.68
1008.31 1008.88 1009.46 1010.03 1010.57 1011.07 1011.54 1011.96 1012.35 1012.73 1013.10 1013.47 1013.84 1014.21 1014.59 1014.96 1015.32 1015.65 1015.95 1016.22 1016.46 1016.65 1016.82 1016.95 1017.04 1017.08 1017.09 1017.03 1016.92 1016.73 1016.48 1016.16 1015.79 1015.37 1014.94 1014.52 1014.14 1013.83 1013.59 1013.45 1013.39 1013.40 1013.46 1013.54
1008.29 1008.91 1009.54 1010.16 1010.76 1011.32 1011.82 1012.28 1012.69 1013.07 1013.43 1013.77 1014.11 1014.45 1014.80 1015.13 1015.47 1015.78 1016.07 1016.34 1016.57 1016.77 1016.94 1017.06 1017.14 1017.18 1017.17 1017.10 1016.96 1016.76 1016.49 1016.16 1015.78 1015.36 1014.93 1014.51 1014.13 1013.80 1013.56 1013.40 1013.32 1013.32 1013.36 1013.43
1008.31 1008.94 1009.60 1010.25 1010.88 1011.46 1011.99 1012.47 1012.89 1013.27 1013.63 1013.96 1014.29 1014.62 1014.95 1015.28 1015.60 1015.92 1016.22 1016.49 1016.73 1016.93 1017.09 1017.21 1017.28 1017.29 1017.25 1017.16 1017.00 1016.77 1016.48 1016.14 1015.75 1015.34 1014.91 1014.50 1014.13 1013.81 1013.57 1013.40 1013.32 1013.30 1013.33 1013.38
1008.36 1009.00 1009.66 1010.32 1010.95 1011.54 1012.07 1012.55 1012.97 1013.36 1013.71 1014.05 1014.38 1014.72 1015.06 1015.40 1015.75 1016.08 1016.40 1016.69 1016.94 1017.15 1017.31 1017.41 1017.46 1017.44 1017.37 1017.24 1017.04 1016.79 1016.48 1016.13 1015.74 1015.34 1014.93 1014.55 1014.20 1013.90 1013.67 1013.51 1013.42 1013.39 1013.40 1013.43
1008.45 1009.09 1009.73 1010.37 1010.99 1011.56 1012.08 1012.55 1012.97 1013.35 1013.71 1014.06 1014.42 1014.77 1015.15 1015.52 1015.91 1016.28 1016.63 1016.94 1017.22 1017.43 1017.59 1017.67 1017.69 1017.65 1017.53 1017.36 1017.13 1016.85 1016.52 1016.16 1015.79 1015.40 1015.02 1014.67 1014.36 1014.09 1013.88 1013.74 1013.65 1013.61 1013.60 1013.60
1008.59 1009.21 1009.83 1010.45 1011.03 1011.57 1012.07 1012.52 1012.93 1013.31 1013.68 1014.05 1014.43 1014.82 1015.23 1015.66 1016.08 1016.50 1016.89 1017.23 1017.52 1017.74 1017.89 1017.96 1017.96 1017.87 1017.72 1017.51 1017.25 1016.94 1016.61 1016.26 1015.89 1015.54 1015.20 1014.89 1014.62 1014.39 1014.21 1014.07 1013.98 1013.92 1013.89 1013.86
1008.77 1009.38 1009.98 1010.56 1011.11 1011.61 1012.08 1012.51 1012.91 1013.29 1013.67 1014.05 1014.46 1014.89 1015.34 1015.81 1016.28 1016.73 1017.15 1017.52 1017.82 1018.05 1018.18 1018.24 1018.20 1018.09 1017.90 1017.66 1017.38 1017.06 1016.73 1016.39 1016.05 1015.74 1015.44 1015.18 1014.95 1014.75 1014.60 1014.47 1014.37 1014.29 1014.22 1014.15
1008.98 1009.57 1010.16 1010.71 1011.23 1011.70 1012.14 1012.55 1012.94 1013.32 1013.71 1014.11 1014.54 1015.00 1015.48 1015.98 1016.47 1016.95 1017.38 1017.76 1018.06 1018.28 1018.40 1018.43 1018.38 1018.24 1018.03 1017.77 1017.48 1017.16 1016.84 1016.53 1016.23 1015.95 1015.70 1015.48 1015.29 1015.13 1014.99 1014.86 1014.75 1014.64 1014.53 1014.40
1009.20 1009.79 1010.36 1010.89 1011.39 1011.84 1012.26 1012.66 1013.04 1013.43 1013.82 1014.24 1014.69 1015.16 1015.66 1016.16 1016.66 1017.14 1017.57 1017.93 1018.22 1018.41 1018.51 1018.52 1018.43 1018.28 1018.06 1017.80 1017.51 1017.21 1016.91 1016.63 1016.37 1016.13 1015.93 1015.75 1015.59 1015.45 1015.31 1015.18 1015.05 1014.90 1014.74 1014.56
1009.41 1010.00 1010.56 1011.08 1011.56 1012.00 1012.42 1012.82 1013.20 1013.59 1014.00 1014.43 1014.88 1015.36 1015.85 1016.34 1016.82 1017.27 1017.67 1018.00 1018.25 1018.40 1018.47 1018.45 1018.35 1018.18 1017.96 1017.70 1017.43 1017.16 1016.89 1016.65 1016.43 1016.23 1016.06 1015.91 1015.78 1015.65 1015.51 1015.37 1015.21 1015.03 1014.83 1014.60
1009.58 1010.16 1010.71 1011.23 1011.71 1012.16 1012.58 1012.98 1013.39 1013.79 1014.21 1014.65 1015.10 1015.57 1016.04 1016.50 1016.94 1017.33 1017.68 1017.95 1018.15 1018.26 1018.28 1018.23 1018.11 1017.94 1017.72 1017.48 1017.23 1016.99 1016.76 1016.56 1016.37 1016.21 1016.07 1015.95 1015.82 1015.70 1015.56 1015.40 1015.22 1015.01 1014.77 1014.50
1009.68 1010.25 1010.80 1011.31 1011.80 1012.25 1012.70 1013.13 1013.55 1013.98 1014.42 1014.86 1015.31 1015.75 1016.19 1016.60 1016.98 1017.31 1017.59 1017.79 1017.92 1017.97 1017.95 1017.87 1017.74 1017.56 1017.36 1017.14 1016.92 1016.71 1016.52 1016.35 1016.20 1016.07 1015.95 1015.83 1015.72 1015.59 1015.44 1015.27 1015.07 1014.84 1014.58 1014.29
1009.70 1010.25 1010.79 1011.30 1011.79 1012.27 1012.74 1013.20 1013.66 1014.12 1014.57 1015.02 1015.46 1015.88 1016.27 1016.63 1016.94 1017.20 1017.39 1017.52 1017.58 1017.58 1017.52 1017.41 1017.26 1017.09 1016.90 1016.70 1016.52 1016.35 1016.19 1016.05 1015.93 1015.81 1015.71 1015.60 1015.48 1015.35 1015.19 1015.01 1014.80 1014.56 1014.30 1014.01
1009.63 1010.16 1010.68 1011.19 1011.70 1012.20 1012.70 1013.19 1013.69 1014.17 1014.65 1015.10 1015.53 1015.92 1016.27 1016.58 1016.82 1017.00 1017.12 1017.18 1017.17 1017.12 1017.02 1016.89 1016.73 1016.57 1016.40 1016.23 1016.08 1015.94 1015.81 1015.70 1015.59 1015.49 1015.39 1015.28 1015.16 1015.02 1014.85 1014.67 1014.46 1014.22 1013.97 1013.69
Thickness
5789 5797 5798 5794 5794 5795 5794 5799 5797 5801 5804 5810 5814 5816 5817 5817 5816 5814 5813 5812 5811 5809 5806 5803 5800 5797 5794 5791 5788 5784 5779 5774 5771 5768 5765 5761 5758 5755 5753 5750 5749 5745 5743 5740
5772 5784 5787 5784 5789 5791 5792 5796 5797 5798 5798 5813 5814 5814 5811 5810 5810 5808 5808 5807 5807 5804 5801 5798 5796 5792 5790 5786 5783 5779 5774 5771 5768 5764 5760 5756 5753 5751 5748 5746 5744 5741 5738 5736
5760 5773 5772 5766 5782 5785 5786 5792 5794 5789 5797 5805 5802 5801 5802 5805 5805 5804 5805 5804 5801 5799 5797 5794 5792 5789 5785 5783 5780 5775 5770 5766 5763 5760 5755 5753 5751 5747 5743 5740 5738 5736 5733 5731
5756 5753 5739 5773 5792 5790 5784 5786 5792 5793 5795 5796 5794 5795 5799 5802 5801 5800 5801 5799 5797 5796 5793 5791 5790 5787 5783 5779 5775 5770 5765 5761 5758 5754 5751 5748 5745 5742 5739 5736 5733 5730 5728 5726
5748 5744 5749 5764 5775 5777 5773 5772 5784 5783 5783 5785 5789 5789 5791 5796 5797 5795 5795 5794 5793 5792 5790 5787 5784 5781 5777 5773 5769 5765 5760 5756 5753 5750 5747 5743 5740 5737 5734 5731 5728 5726 5723 5720
5739 5735 5734 5757 5771 5777 5770 5758 5777 5776 5773 5775 5777 5774 5780 5787 5789 5789 5788 5787 5786 5786 5784 5779 5776 5774 5769 5765 5761 5758 5755 5752 5749 5746 5742 5739 5735 5732 5729 5726 5724 5722 5719 5716
5731 5730 5741 5756 5763 5762 5743 5751 5766 5768 5767 5767 5768 5772 5777 5779 5779 5779 5779 5779 5779 5777 5774 5771 5769 5766 5761 5757 5754 5752 5750 5746 5742 5739 5736 5733 5730 5726 5723 5721 5718 5715 5712 5710
5724 5722 5728 5747 5749 5745 5745 5755 5759 5760 5761 5760 5762 5764 5767 5769 5769 5771 5770 5770 5769 5767 5764 5762 5761 5757 5753 5750 5748 5746 5743 5739 5735 5732 5731 5728 5723 5719 5717 5714 5711 5708 5705 5703
5719 5721 5728 5737 5739 5742 5746 5745 5749 5752 5754 5754 5754 5755 5758 5760 5761 5761 5761 5760 5760 5758 5755 5753 5751 5749 5745 5743 5740 5737 5734 5731 5728 5725 5722 5720 5715 5712 5710 5707 5706 5705 5703 5700
5706 5713 5720 5726 5731 5734 5737 5739 5742 5744 5745 5746 5746 5749 5750 5751 5751 5751 5751 5751 5751 5750 5747 5744 5743 5741 5738 5735 5732 5729 5725 5722 5720 5717 5714 5712 5709 5707 5705 5703 5701 5699 5697 5694
5696 5703 5710 5714 5719 5723 5727 5730 5732 5734 5737 5738 5739 5740 5741 5741 5741 5741 5741 5742 5742 5740 5737 5735 5734 5732 5730 5727 5724 5720 5716 5714 5712 5710 5708 5704 5702 5700 5698 5697 5695 5691 5690 5688
5690 5697 5699 5702 5710 5715 5716 5717 5720 5722 5725 5728 5730 5731 5732 5731 5731 5732 5732 5732 5731 5730 5729 5727 5725 5723 5721 5718 5715 5711 5708 5705 5704 5703 5700 5698 5696 5693 5689 5687 5684 5680 5677 5676
5688 5694 5695 5698 5702 5705 5707 5709 5712 5713 5714 5717 5720 5722 5721 5721 5721 5721 5721 5722 5721 5720 5720 5718 5716 5713 5712 5709 5706 5702 5700 5697 5696 5695 5692 5690 5688 5686 5684 5679 5674 5672 5669 5667
5681 5683 5683 5687 5690 5696 5698 5700 5702 5703 5705 5707 5709 5710 5710 5710 5710 5710 5710 5711 5711 5710 5710 5709 5707 5704 5704 5701 5697 5694 5692 5689 5687 5685 5685 5684 5682 5680 5678 5676 5673 5671 5665 5660
5672 5675 5678 5682 5684 5686 5689 5690 5691 5693 5694 5696 5698 5699 5698 5698 5698 5698 5700 5701 5701 5700 5699 5699 5697 5695 5694 5692 5688 5685 5684 5682 5680 5679 5678 5676 5675 5673 5671 5669 5667 5665 5662 5658
5665 5668 5672 5673 5674 5677 5680 5682 5682 5683 5685 5686 5687 5688 5688 5688 5688 5689 5689 5690 5688 5687 5687 5688 5686 5685 5684 5682 5679 5678 5676 5671 5668 5670 5670 5669 5668 5666 5664 5662 5660 5658 5656 5654
5656 5658 5662 5664 5667 5669 5671 5673 5674 5675 5676 5677 5677 5678 5678 5678 5677 5676 5677 5679 5678 5677 5678 5678 5677 5677 5675 5672 5670 5670 5668 5666 5659 5661 5662 5661 5659 5657 5656 5654 5653 5652 5650 5647
5655 5657 5658 5660 5661 5662 5663 5664 5665 5665 5666 5667 5668 5668 5667 5667 5666 5666 5668 5669 5668 5667 5668 5669 5667 5666 5665 5663 5661 5661 5659 5658 5656 5654 5653 5651 5650 5649 5648 5646 5645 5643 5642 5639
5650 5651 5653 5654 5656 5656 5657 5656 5657 5657 5657 5658 5657 5657 5657 5657 5657 5658 5658 5657 5656 5656 5657 5658 5653 5656 5656 5655 5651 5651 5651 5650 5647 5646 5645 5642 5641 5641 5640 5638 5637 5635 5633 5631
5643 5645 5646 5647 5648 5649 5649 5650 5650 5649 5649 5650 5649 5649 5648 5647 5647 5647 5647 5647 5647 5647 5647 5646 5647 5648 5647 5646 5642 5645 5643 5641 5640 5638 5637 5635 5633 5631 5630 5628 5627 5625 5623 5621
5638 5639 5640 5640 5640 5641 5642 5643 5642 5641 5641 5642 5641 5640 5639 5638 5638 5638 5638 5638 5636 5636 5637 5636 5638 5638 5639 5636 5634 5637 5636 5634 5631 5630 5628 5627 5625 5623 5620 5619 5617 5616 5613 5610
5633 5634 5634 5634 5633 5633 5635 5635 5635 5634 5633 5633 5633 5632 5631 5629 5629 5629 5627 5627 5627 5624 5628 5630 5630 5626 5626 5625 5629 5629 5628 5625 5623 5622 5620 5618 5616 5613 5611 5610 5608 5606 5604 5602
5627 5628 5629 5628 5628 5628 5628 5629 5628 5628 5627 5626 5626 5625 5624 5623 5623 5622 5620 5620 5620 5617 5619 5618 5615 5614 5613 5618 5620 5620 5618 5616 5615 5613 5611 5609 5608 5606 5604 5602 5600 5598 5596 5594
5622 5623 5623 5624 5624 5623 5621 5622 5622 5621 5620 5619 5619 5618 5617 5617 5616 5616 5615 5610 5609 5609 5611 5607 5605 5606 5606 5611 5612 5611 5609 5608 5607 5605 5603 5601 5600 5599 5597 5595 5593 5591 5588 5585
5617 5618 5619 5619 5619 5618 5616 5615 5615 5614 5615 5615 5614 5612 5613 5612 5611 5610 5609 5606 5602 5602 5604 5602 5600 5600 5603 5604 5603 5602 5601 5599 5597 5595 5594 5593 5592 5591 5589 5587 5585 5582 5580 5577
5613 5614 5614 5614 5615 5614 5614 5614 5613 5611 5611 5610 5609 5608 5608 5606 5605 5604 5603 5601 5600 5597 5598 5599 5598 5597 5598 5597 5595 5593 5592 5591 5590 5587 5585 5584 5582 5581 5579 5577 5575 5573 5571 5568
5609 5610 5609 5609 5609 5610 5611 5610 5608 5607 5607 5605 5604 5604 5603 5602 5601 5599 5598 5597 5596 5594 5594 5593 5593 5592 5591 5590 5588 5586 5584 5582 5580 5578 5576 5575 5573 5571 5569 5566 5565 5563 5561 5558